User: anonymous   Login
Location: *
(51.5000°N, 0.1100°W)
Time: 08:24:52
(UTC+00:00)
Language:

Meteor 2-10 Rocket - Orbit

View from above orbital plane
View from above orbital plane
View from above satellite
View from above satellite

Ground track
Ground track

The orbit data is extracted from the following two-line orbital elements,

1 14453U 83109B   24202.94210418  .00000459  00000-0  17921-3 0  9998
2 14453  81.1660  19.4984 0104955 127.1498 233.9324 14.25117775116365
Epoch (UTC): 20 July 2024 22:36:37
Eccentricity: 0.0104955
inclination: 81.1660°
perigee height: 732 km
apogee height: 883 km
right ascension of ascending node: 19.4984°
argument of perigee: 127.1498°
revolutions per day: 14.25117775
mean anomaly at epoch: 233.9324°
orbit number at epoch: 11636

The dashed part of the orbit path shows where the satellite is in the earth's shadow,  

DLR